User: anonymous
Location: Lake Runnemede Observatory
(43.4843°N, 72.3851°W)
Time: 18:52:04
(UTC-04:00)
Language:

SPOT 5 - Orbit

View from above orbital plane
View from above orbital plane
View from above satellite
View from above satellite

Ground track
Ground track

The orbit data is extracted from the following two-line orbital elements,

1 27421U 02021A   14109.44524545  .00000446  00000-0  22943-3 0  4799
2 27421 098.5673 174.4253 0001313 092.9978 323.8485 14.20103316619981
Epoch (UTC): 19 April 2014 10:41:09
Eccentricity: 0.0001313
inclination: 98.5673°
perigee height: 824 km
apogee height: 826 km
right ascension of ascending node: 174.4253°
argument of perigee: 92.9978°
revolutions per day: 14.20103316
mean anomaly at epoch: 323.8485°
orbit number at epoch: 61998

The dashed part of the orbit path shows where the satellite is in the earth's shadow,  

DLR